Regional Weather Roundup
Issued by NWS Green Bay, WI

Home | Current Version | Previous Version | Graphics & Text | Print | Product List | Glossary Off
Versions: 1 2 3 4 5 6 7 8 9 10 11 12 13 14 15 16 17 18 19 20 21 22 23 24 25 26 27 28 29 30 31 32 33 34 35 36 37 38 39 40 41 42 43 44 45 46 47 48 49 50

000
ASUS43 KGRB 171911
RWRGRB

NORTH-CENTRAL AND NORTHEAST WISCONSIN REGIONAL WEATHER ROUNDUP
NATIONAL WEATHER SERVICE GREEN BAY WI
200 PM CDT THU AUG 17 2017

WIZ005-009-010>012-018-019-172000-
NORTH CENTRAL WISCONSIN

CITY           SKY/WX    TMP DP  RH WIND       PRES   REMARKS
IRONWOOD       RAIN      67  65  93 W9        29.57R
MANITOWISH WTR CLOUDY    67  67 100 W3        29.57F
ARBOR VITAE    PTSUNNY   67  65  91 S8        29.57S
EAGLE RIVER    CLOUDY    71  61  71 SW6       29.56F
LAND O LAKES   CLOUDY    73  65  77 S6        29.58F
RHINELANDER    LGT RAIN  67  66  97 S6        29.57F FOG
PHILLIPS       RAIN      66  66  99 N5        29.55F
ANTIGO         LGT RAIN  66  65  97 S13G24    29.58F
TOMAHAWK       HVY RAIN  66  64  94 CALM      29.56F
MERRILL        NOT AVBL
$$

WIZ013-073-172000-
NORTHEAST WISCONSIN

CITY           SKY/WX    TMP DP  RH WIND       PRES   REMARKS
IRON MOUNTAIN  LGT RAIN  74  66  76 S14G25    29.54F
MARINETTE      CLOUDY    80  66  62 SW20G25   29.56F
OCONTO         PTSUNNY   80  66  62 SW10G16   29.56F
$$

WIZ017-030-035>037-045-172000-
CENTRAL WISCONSIN

CITY           SKY/WX    TMP DP  RH WIND       PRES   REMARKS
MEDFORD        CLOUDY    69  66  90 W10       29.54S
WAUSAU         LGT RAIN  67  66  97 S13       29.53F FOG
MOSINEE        LGT RAIN  66  66 100 SW17      29.57F FOG
MARSHFIELD     LGT RAIN  69  66  90 SW15G22   29.55S
WISC RAPIDS    LGT RAIN  70  67  90 SW10G22   29.59F FOG
STEVENS POINT  CLOUDY    70  65  86 SW20G26   29.57F
WAUPACA        CLOUDY    73  67  82 S20       29.59F HAZE
SHAWANO        CLOUDY    77  63  62 SW9G16    29.57S
CLINTONVILLE   CLOUDY    73  63  68 SW15G21   29.58S
WAUTOMA        CLOUDY    70  67  90 SW14G21   29.61S
$$

WIZ038-039-048-051-172000-
FOX VALLEY

CITY           SKY/WX    TMP DP  RH WIND       PRES   REMARKS
NWS GREEN BAY  PTSUNNY   76  69  79 S12G20    29.59F
APPLETON       PTSUNNY   75  61  60 SW18G28   29.59F
OSHKOSH        PTSUNNY   77  65  66 SW16G23   29.60F
FOND DU LAC    MOSUNNY   77  62  59 SW15G22   29.62F
$$

WIZ022-050-052-172000-
EAST CENTRAL WISCONSIN

CITY           SKY/WX    TMP DP  RH WIND       PRES   REMARKS
EPHRAIM        CLOUDY    74  69  84 S10G16    29.59S
WASHINGTON ISL CLOUDY    72  69  90 S13G26    29.59S
STURGEON BAY   CLOUDY    74  70  87 S13       29.59F
MANITOWOC      MOSUNNY   79  65  62 SW17        N/A
SHEBOYGAN      PTSUNNY   79  68  69 SW16G26   29.63F
$$

LMZ563-521-522-541>543-172000-
LAKESHORE

STATION/POSITION TIME  TEMP    WIND        PRES    VSBY  WAVE
                       AIR SEA DIR/SP/G                  HT/PER
                 (UTC) (F)     (DEG/KT/KT) (MB)    (MI)  (FT/S)
SHEBOYGAN LKSHOR 1900   76     200/ 17/ 21 1002.4F
KEWAUNEE LKSHORE 1848   73     180/ 15/ 22 1001.9F
NORTHPORT PIER   1840   72     160/ 11/ 16 1002.0F
N MID LAKE BUOY  1850   69 68  170/ 17/ 21 1002.4F         3/ 5
S GREEN BAY BUOY 1900   75 72  200/ 14/ 17 1001.2
SISTER BAY LKSHO 1903   75     210/ 22/ 26   N/A
MENOMINEE LKSHOR 1848   78     200/ 15/ 22 1001.0F
$$



USA.gov is the U.S. government's official web portal to all federal, state and local government web resources and services.